Regional Weather Roundup
Issued by NWS New Orleans/Baton Rouge, LA

Home | Current Version | Previous Version | Text Only | Print | Product List | Glossary On
Versions: 1 2 3 4 5 6 7 8 9 10 11 12 13 14 15 16 17 18 19 20 21 22 23 24 25 26 27
000
ASUS44 KLIX 292011
RWRLIX
NEW ORLEANS REGIONAL WEATHER ROUNDUP
NATIONAL WEATHER SERVICE NEW ORLEANS LA
300 PM CDT THU SEP 29 2016

NOTE: "FAIR" INDICATES FEW OR NO CLOUDS BELOW 12,000 FEET WITH NO
      SIGNIFICANT WEATHER AND/OR OBSTRUCTIONS TO VISIBILITY.
      SKY/WX - SKY CONDITION AND SIGNIFICANT WEATHER.
      TMP - AIR TEMPERATURE.     DP    - DEWPOINT TEMPERATURE.
      RH  - RELATIVE HUMIDITY.   PRES  - PRESSURE.
      HI  - HEAT INDEX.          WCI   - WIND CHILL INDEX.

*  THESE STATIONS ARE NOT NWS OR FAA STATIONS AND ARE NOT UNDER
   NWS QUALITY CONTROL.

LAZ038-040-048-061>063-065>067-069-292100-
SOUTHEAST LOUISIANA

CITY           SKY/WX    TMP DP  RH WIND       PRES   REMARKS
N.O. AUDUBON     N/A     84  68  58 MISG        N/A
N.O. INTL ARPT MOSUNNY   86  65  49 NW10      30.04F
N.O. LAKEFRONT SUNNY     84  64  50 NW13      30.04F
N.O. DOWNTOWN*   N/A     83  64  52 NW8       30.05F
RESERVE*         N/A     85  64  49 N8        30.04F
SLIDELL        SUNNY     83  64  52 N8        30.03F
BATON ROUGE    SUNNY     82  59  45 N8        30.07F
BOOTHVILLE     SUNNY     85  67  54 N6        30.02F
BELLE CHASSE   MOSUNNY   84  65  52 VRB7      30.02F
BOGALUSA*        N/A     83  57  41 N8        30.07F
GALLIANO*      CLEAR     90  37  15 W6        30.02F
NEW ROADS*       N/A     80  56  44 MISG      30.09F
GONZALES*        N/A     83  63  50 N9        30.04F
HAMMOND*       SUNNY     84  55  37 NW9       30.05F
HOUMA*         MOSUNNY   88  61  40 NW8       30.02F
PORT FOURCHON* CLEAR     84  63  48 W10       30.02F

$$

MSZ070-080>082-292100-
SOUTHERN MISSISSIPPI

CITY           SKY/WX    TMP DP  RH WIND       PRES   REMARKS
MCCOMB         SUNNY     79  50  36 N10       30.08F
GULFPORT       SUNNY     85  62  46 N12       30.01F
BILOXI         SUNNY     84  64  50 N6        30.01F
PASCAGOULA     SUNNY     84  65  52 NW7       30.01F
STENNIS ARPT*  SUNNY     84  57  39 NW7       30.03F

$$

COASTAL OBSERVATIONS
LAKE AND NEARSHORE STATIONS

STATION/POSITION TIME  TEMP    WIND        PRES    WAVE
                       AIR SEA DIR/SP/G            HT/PER
                 (UTC) (F)     (DEG/KT/KT) (MB)    (FT/S)
PASCAGOULA       1900   85     300/  3/  8 1016.2
WAVELAND YACHT   1900   80 83  350/  9/ 12 1017.3
GRAND ISLE       1900   85 85   10/  4/  5 1017.4
SOUTHWEST PASS   1900          320/  7/ 11   N/A
NEW CANAL        1900   79 86  350/  9/ 14 1017.0
SHELL BEACH      1900   80 86  320/ 13/ 16 1017.3

OFFSHORE STATIONS

STATION/POSITION TIME  TEMP    WIND        PRES    WAVE
                       AIR SEA DIR/SP/G            HT/PER
                 (UTC) (F)     (DEG/KT/KT) (MB)    (FT/S)
64 S DAUPHIN ISL 1900   82 85  310/ 10/ 12 1016.4

$$





USA.gov is the U.S. government's official web portal to all federal, state and local government web resources and services.